Location: Bidart
(43.4376°N, 1.5913°W)
Time: 04:36:33
(UTC+00:00)

Cosmos 1934 Rocket - Pass Details

Date: 19 May 2025
Orbit: 938 x 997 km, 83.0° (Epoch: 13 June)

Event Time Altitude Azimuth Distance (km) Brightness Sun altitude
Rises 23:10:03 0° 350° (N) 3,671 8.4 -25.4°
Reaches altitude 10° 23:12:33 10° 349° (N) 2,729 7.4 -25.5°
Maximum altitude 23:18:49 77° 265° (W) 1,011 4.0 -25.8°
Enters shadow 23:20:03 59° 197° (SSW) 1,130 4.0 -25.8°
